Regional Weather Roundup
Issued by NWS

Home | Current Version | Previous Version | Graphics & Text | Print | Product List | Glossary On
Versions: 1 2 3 4 5 6 7 8 9 10 11 12 13 14 15 16 17 18 19 20 21 22 23 24 25 26 27 28 29 30 31 32 33 34 35 36 37 38 39 40 41 42 43 44 45 46 47 48 49 50
355
ASUS45 KPSR 231610
RWRAZ

ARIZONA HOURLY REGIONAL WEATHER ROUNDUP
NATIONAL WEATHER SERVICE PHOENIX AZ
900 AM MST THU FEB 23 2017

NOTE: FAIR INDICATES FEW OR NO CLOUDS BELOW 12,000 FEET WITH NO
SIGNIFICANT WEATHER AND/OR OBSTRUCTIONS TO VISIBILITY.

AZZ001>003-036-231700-
NORTHWEST ARIZONA

CITY           SKY/WX    TMP DP  RH WIND       PRES   REMARKS
BULLHEAD CITY  SUNNY     48  28  46 CALM      29.97S
KINGMAN        SUNNY     42  13  30 SW6       29.93R
$$

AZZ004>008-015-016-018-231700-
NORTH CENTRAL ARIZONA

CITY           SKY/WX    TMP DP  RH WIND       PRES   REMARKS
GRAND CANYON   MOSUNNY   25  22  88 SW10      29.83S WCI  15
WILLIAMS       MOSUNNY   28  21  74 VRB6      29.84S WCI  22
PRESCOTT       MOSUNNY   37  24  59 N6        29.88S WCI  32
FLAGSTAFF      MOSUNNY   27  16  63 VRB7G17   29.82R WCI  19
PAYSON         SUNNY     39  19  45 W5        29.90R
PAGE           SUNNY     39  11  31 W13G20    29.80R WCI  31
$$

AZZ009>014-017-231700-
NORTHEAST ARIZONA

CITY           SKY/WX    TMP DP  RH WIND       PRES   REMARKS
WINSLOW        MOSUNNY   41  20  43 NW14      29.86R
SAINT JOHNS    SUNNY     40  15  36 NW17      29.82R WCI  31
WINDOW ROCK    MOSUNNY   32  17  54 W13G28    29.80R WCI  22
SHOW LOW         N/A     36  12  38 SW23      29.84F WCI  24
$$

AZZ023-231700-
GREATER PHOENIX AREA

CITY           SKY/WX    TMP DP  RH WIND       PRES   REMARKS
PHOENIX        SUNNY     52  25  35 W8        29.93R
BUCKEYE        SUNNY     48  28  46 W3        29.96R
GLENDALE       SUNNY     50  30  46 S9        29.95R
LUKE AFB       SUNNY     51  30  43 S8        29.93R
DEER VALLEY    SUNNY     49  28  44 W9        29.92R
SCOTTSDALE     SUNNY     51  25  36 SW7       29.94R
MESA-FALCON    SUNNY    N/A N/A N/A MISG      29.91R
MESA-GATEWAY   SUNNY     50  30  46 SW5       29.94R
$$

AZZ027-028-231700-
SOUTHWEST MARICOPA COUNTY AND PINAL COUNTY

CITY           SKY/WX    TMP DP  RH WIND       PRES   REMARKS
CASA GRANDE    NOT AVBL
GILA BEND      SUNNY     53  24  32 W9        29.96R
$$

AZZ503-504-507>509-231700-
SOUTHEAST ARIZONA

CITY           SKY/WX    TMP DP  RH WIND       PRES   REMARKS
TUCSON         SUNNY     52  28  39 NW7       29.96S
DAVIS-MONTHAN  SUNNY     51  29  41 NW8       29.95R
RYAN FIELD     SUNNY     52  27  37 NW8       29.97R
NOGALES        SUNNY     51  37  58 SW3       29.93R
SIERRA VISTA   SUNNY     51  34  51 NW9       29.93R
DOUGLAS        SUNNY     54  37  52 NW8       29.92R
SAFFORD        SUNNY     54  23  30 NW22      29.86R
$$

AZZ020-021-025-026-031-231700-
SOUTHWEST ARIZONA

CITY           SKY/WX    TMP DP  RH WIND       PRES   REMARKS
YUMA           SUNNY     56  25  30 N5        30.01R
$$

CAZ031-033-041-043-047-048-061-231700-
SOUTHERN CALIFORNIA

CITY           SKY/WX    TMP DP  RH WIND       PRES   REMARKS
DOWNTOWN L.A.  SUNNY     52  28  39 N6        30.09R
L.A. AIRPORT   MOSUNNY   51  29  42 N7        30.10R
SAN DIEGO      MOSUNNY   57  35  43 NW6       30.10R
BURBANK        SUNNY     48  25  40 N14       30.08R
ONTARIO        MOSUNNY   47  36  65 CALM      30.07R
RIVERSIDE      SUNNY     46  39  76 CALM      30.07R
PALM SPRINGS   SUNNY     55  38  52 CALM      30.01R
EL CENTRO NAS  MOSUNNY   58  31  35 NW17      30.03R
BLYTHE         SUNNY     54  23  30 NW12      30.00R
NEEDLES        SUNNY     54  21  27 NW6       29.97R
$$

NVZ020-UTZ003-231700-
SOUTHERN NEVADA-UTAH

CITY           SKY/WX    TMP DP  RH WIND       PRES   REMARKS
LAS VEGAS      SUNNY     47   9  21 N15       29.94R
SALT LAKE CITY LGT SNOW  29  26  89 W8        29.75R FOG     WCI  21
$$

NMZ009-TXZ055-231700-
NEW MEXICO-WEST TEXAS

CITY           SKY/WX    TMP DP  RH WIND       PRES   REMARKS
ALBUQUERQUE    MOSUNNY   51  18  27 W26G36    29.70R
EL PASO        MOSUNNY   65  31  28 SW22G33   29.79S
$$


........................KEY........................
SKY/WX - SKY CONDITION/WEATHER
TMP    - TEMPERATURE IN FAHRENHEIT
DP     - DEW POINT IN FAHRENHEIT
RH     - RELATIVE HUMIDITY IN PERCENT
WIND   - DIRECTION AND SPEED IN MILES PER HOUR (MPH)
VRB    - VARIABLE WIND DIRECTION
PRES   - MEAN SEA LEVEL PRESSURE IN INCHES OF MERCURY
         F - FALLING PRESSURE   R - RISING PRESSURE
         S - STEADY PRESSURE
VSB    - VISIBILITY IN MILES
HX     - HEAT INDEX IN FAHRENHEIT
WCI    - WIND CHILL INDEX IN FAHRENHEIT
TC     - TEMPERATURE IN CELSIUS WHICH IS ALSO KNOWN AS
         TEMPERATURE IN CENTIGRADE
AFB    - AIR FORCE BASE
         LUKE AFB IS LUKE AIR FORCE BASE
         DAVIS-MONTHAN IS DAVIS-MONTHAN AIR FORCE BASE
NAS    - NAVAL AIR STATION
         EL CENTRO NAS IS EL CENTRO NAVAL AIR STATION
N/A    - NOT AVAILABLE





USA.gov is the U.S. government's official web portal to all federal, state and local government web resources and services.